カタログに戻る

KUIPER-00180

運用中通信LEO
NORAD 67768·PAYLOAD·🇺🇸 United States

打ち上げ Feb 12, 2026 から Guiana Space Centre

Loading…

次のパス (今後24時間)

TLE

最新Source: CelesTrak SupGP

元期: Sep 14, 2026, 20:10 UTC

1 67768C 26030E   26257.84062500  .00004487  00000+0  58746-3 0  2574
2 67768  51.8971  91.6756 0000794 113.3798  58.9206 14.79922706    11

AllMySatでKUIPER-00180をリアルタイム追跡

Download on the App Store